Regional Weather Roundup
Issued by NWS Charleston, WV

Home | Current Version | Previous Version | Graphics & Text | Print | Product List | Glossary On
Versions: 1 2 3 4 5 6 7 8 9 10 11 12 13 14 15 16 17 18 19 20 21 22 23 24 25 26 27 28 29 30 31 32 33 34 35 36 37 38 39 40 41 42 43 44 45 46 47 48 49 50
786
ASUS41 KRLX 031710
RWRRLX
West Virginia Regional Weather Roundup
National Weather Service Charleston WV
100 PM EDT TUE MAY 03 2016

Note: "fair" indicates few or no clouds below 12,000 feet with no
significant weather and/or obstructions to visibility.

WVZ003-031800-
Northern Panhandle of West Virginia

CITY           SKY/WX    TMP DP  RH WIND       PRES   REMARKS
WHEELING       CLOUDY    60  45  57 NW5       29.85F
$$

WVZ009-031800-
Northwest West Virginia

CITY           SKY/WX    TMP DP  RH WIND       PRES   REMARKS
PARKERSBURG    CLOUDY   N/A N/A N/A CALM      29.89F
$$

WVZ006-031800-
Western West Virginia

CITY           SKY/WX    TMP DP  RH WIND       PRES   REMARKS
HUNTINGTON     CLOUDY    58  55  90 W3        29.88S FOG
$$

WVZ015-031800-
West Central West Virginia

CITY           SKY/WX    TMP DP  RH WIND       PRES   REMARKS
CHARLESTON     CLOUDY    62  54  74 NW9       29.86S
$$

WVZ022-031-031800-
North Central West Virginia

CITY           SKY/WX    TMP DP  RH WIND       PRES   REMARKS
CLARKSBURG     CLOUDY    63  50  62 NW6       29.83F
MORGANTOWN     CLOUDY    59  47  64 CALM      29.85F
$$

WVZ025-035-042-045-031800-
Southern West Virginia

CITY           SKY/WX    TMP DP  RH WIND       PRES   REMARKS
BECKLEY        PTSUNNY   65  53  65 SW13      29.86F
LOGAN          NOT AVBL
BLUEFIELD      CLOUDY    60  55  83 W12       29.88F
LEWISBURG      CLOUDY    62  54  76 SW6       29.84F
$$

WVZ047-031800-
Northern Mountains of West Virginia

CITY           SKY/WX    TMP DP  RH WIND       PRES   REMARKS
ELKINS         CLOUDY    61  50  67 VRB5      29.85S
$$

WVZ052-031800-
Eastern Panhandle of West Virginia

CITY           SKY/WX    TMP DP  RH WIND       PRES   REMARKS
MARTINSBURG    CLOUDY    67  54  63 N8        29.79F
PETERSBURG     PTSUNNY   71  54  55 CALM      29.79F
$$




USA.gov is the U.S. government's official web portal to all federal, state and local government web resources and services.